Miscellaneous Local Product
Issued by NWS Hastings, NE

Home | Current Version | Previous Version | Graphics & Text | Print | Product List | Glossary On
Versions: 1 2 3 4 5 6 7 8 9 10 11 12 13 14 15 16 17 18 19 20 21 22 23 24 25 26 27 28 29 30 31 32 33 34 35 36 37 38 39 40 41 42 43 44 45 46 47 48 49 50
952
AXUS43 KGID 210002
MISGRI

GID CWA HOURLY WEATHER ROUNDUP
NATIONAL WEATHER SERVICE HASTINGS NE
600 PM CST FRI JAN 20 2017

NOTE: "FAIR" INDICATES FEW OR NO CLOUDS BELOW 12,000 FEET WITH NO
SIGNIFICANT WEATHER AND/OR OBSTRUCTIONS TO VISIBILITY.

...SOUTH CENTRAL NEBRASKA...

CITY           SKY/WX    TMP DP  RH WIND       PRES   REMARKS
GRAND ISLAND   FOG       39  39 100 SE5       29.38F VSB 1/4
HASTINGS       CLOUDY    41  40  96 S5        29.39S FOG
KEARNEY        CLOUDY    39 -11  11 CALM      29.37S VSB 1/4
ORD            FOG       39  37  92 SE3       29.36S VSB 1
YORK           FOG       41  41 100 CALM      29.39F VSB 1/2
AURORA         FOG       39  39 100 E3        29.39S VSB 1/4
LEXINGTON      CLOUDY    39  36  89 CALM      29.37R
HOLDREGE       CLOUDY    37  37  97 CALM      29.38R FOG
HEBRON         FOG       43  43 100 CALM      29.41R VSB 1/2

...NEBRASKA PANHANDLE...

CITY           SKY/WX    TMP DP  RH WIND       PRES   REMARKS
CHADRON        CLOUDY    36  32  85 W14       29.37R WCI  27
ALLIANCE       CLOUDY    37  31  78 NW13      29.37R WCI  29
SCOTTSBLUFF    LGT RAIN  37  33  85 W10       29.40R WCI  30
SIDNEY         CLOUDY    36  31  82 NW14      29.39R WCI  27

...WESTERN AND NORTH CENTRAL NEBRASKA...

CITY           SKY/WX    TMP DP  RH WIND       PRES   REMARKS
VALENTINE      PTCLDY    33  26  75 SW5       29.34R WCI  29
AINSWORTH      CLOUDY    37  31  80 SW5       29.34S WCI  33
ONEILL         CLOUDY    41  39  93 S9        29.37S
BROKEN BOW     CLOUDY    38  36  92 CALM      29.35S
IMPERIAL       CLOUDY    39  34  82 NW7       29.37R WCI  34
NORTH PLATTE   CLOUDY    36  31  82 W6        29.36S WCI  31
MCCOOK         CLOUDY    38  33  82 W7        29.37S WCI  33

...EASTERN NEBRASKA...

CITY           SKY/WX    TMP DP  RH WIND       PRES   REMARKS
NORFOLK        CLOUDY    39  38  96 SE6       29.41S FOG     WCI  35
SO SIOUX CITY  FOG       41  40  96 SE7       29.46R VSB 3/4
TEKAMAH        LGT RAIN  39  38  96 SE6       29.46S FOG     WCI  35
COLUMBUS       CLOUDY    39  37  93 E8        29.41F VSB 1/2 WCI  34
ALBION         CLOUDY   N/A N/A N/A E7        29.39F FOG
OMAHA EPPLEY   CLOUDY    42  38  85 E6        29.46S FOG
OFFUTT AFB     LGT RAIN  41  41 100 E6        29.45S
MILLARD        CLOUDY    44  43  95 E3        29.45S
LINCOLN        FOG       43  42  97 E8        29.43F VSB 3/4
NEBRASKA CITY  FOG       42  42 100 E5        29.45R VSB 1/2
BEATRICE       FOG       44  44 100 E5        29.41S VSB 1/4
FALLS CITY     CLOUDY    45  44  97 SE7       29.44R

...NORTHERN KANSAS...

CITY           SKY/WX    TMP DP  RH WIND       PRES   REMARKS
GOODLAND       CLOUDY    35  34  96 SW9       29.40R WCI  28
HILL CITY      CLOUDY    42  37  82 CALM      29.41R
NORTON         CLOUDY    37  34  87 CALM      29.39R
PHILLIPSBURG   CLOUDY    41  41 100 CALM      29.41S FOG
SMITH CENTER   CLOUDY    39  39 100 SW3       29.41S FOG
HAYS           CLOUDY    44  37  76 W7        29.42R
RUSSELL        CLOUDY    46  41  82 CALM      29.40R
CONCORDIA      CLOUDY    45  45 100 S3        29.41R FOG
SALINA         CLOUDY    48  45  89 S7        29.43R
TOPEKA         CLOUDY    50  47  89 SE7       29.44R



USA.gov is the U.S. government's official web portal to all federal, state and local government web resources and services.